Content
SEND FEEDBACK

Daily
Averages
Monthly
Summary
United States of America

MONEKA PARK, OKLAHOMA


Home > North America > United States > Oklahoma
Elevation: 990 feet     Latitude: 34 14N     Longitude: 098 03W

WEATHER
 
SELECT A DAY
Number of Records: 332,021;   Date Range: 3/30/01 - 11/24/14
 
SHARE

PRINT THIS DATA

[ ← Previous Day ]
WEATHER ALMANAC - JANUARY 23, 2013
[ Next Day → ]
[ °C ]   °F
Weather ElementAverageHighLow
Temperature52.6 °F69.8 °F (2:55 pm)35.6 °F (5:55 am)
Dewpoint46.7 °F53.6 °F (11:55 am)35.6 °F (5:55 am)
Humidity83.1 %100 % (1:55 am)53 % (3:35 pm)
Barometer30.17 in30.23 in (10:35 am)30.09 in (5:15 pm)
Wind Speed5.2 mph11.5 mph (4:55 pm)
Weather ElementAverage
Visibility8.2 mi
Wind DirectionSE (136.7 °)

Weather ElementTotal
Precipitation---
Heating Degree Days12.3 (Base 65)
Growing Degree Days2.7 (Base 50)
Averaged from 67 records on January 23, 2013
WEATHER CONDITIONS BREAKOUT
WIND DIRECTION BREAKOUT
WEATHER BY HOUR - JANUARY 23, 2013
[ °C ]   °F
Local TimeTemperatureDewpointHumidityBarometerVisibilityWind DirectionWind SpeedGust SpeedPrecipitationEventsConditions
12:35 AM44.6 °F42.8 °F93 %30.20 in10.0 miEast (80°)6.9 mphClear
12:55 AM44.6 °F42.8 °F93 %30.20 in10.0 miENE (70°)8.1 mphClear
1:15 AM44.6 °F42.8 °F93 %30.19 in10.0 miEast (100°)4.6 mphClear
1:35 AM42.8 °F41.0 °F93 %30.18 in10.0 miESE (120°)6.9 mphClear
1:55 AM42.8 °F42.8 °F100 %30.19 in10.0 miESE (110°)3.5 mphClear
2:15 AM42.8 °F41.0 °F93 %30.19 in10.0 miEast (90°)5.8 mphClear
2:35 AM42.8 °F42.8 °F100 %30.19 in10.0 miEast (90°)6.9 mphClear
2:55 AM42.8 °F41.0 °F93 %30.19 in10.0 miESE (110°)5.8 mphClear
3:15 AM41.0 °F41.0 °F100 %30.20 in10.0 miESE (110°)5.8 mphClear
3:35 AM39.2 °F39.2 °F100 %30.19 in10.0 miESE (110°)3.5 mphClear
3:55 AM39.2 °F39.2 °F100 %30.19 in10.0 miEast (100°)4.6 mphClear
4:15 AM39.2 °F39.2 °F100 %30.19 in10.0 miEast (80°)4.6 mphClear
4:35 AM41.0 °F41.0 °F100 %30.18 in10.0 miESE (120°)4.6 mphClear
4:55 AM41.0 °F41.0 °F100 %30.19 in5.0 miESE (110°)4.6 mphClear
5:15 AM41.0 °F41.0 °F100 %30.19 in5.0 miESE (110°)4.6 mphClear
5:35 AM39.2 °F39.2 °F100 %30.19 in4.0 miEast (100°)4.6 mphClear
5:55 AM35.6 °F35.6 °F100 %30.18 in1.0 miSE (140°)3.5 mphMist
6:15 AM37.4 °F37.4 °F100 %30.19 in1.0 miEast (80°)3.5 mphMist
6:35 AM35.6 °F35.6 °F100 %30.19 in1.0 miEast (80°)3.5 mphMist
6:55 AM37.4 °F37.4 °F100 %30.20 in1.2 miENE (60°)4.6 mphMist
7:15 AM37.4 °F37.4 °F100 %30.20 in1.8 miCalmMist
7:35 AM37.4 °F37.4 °F100 %30.21 in0.8 miEast (90°)4.6 mphMist
7:55 AM37.4 °F37.4 °F100 %30.21 in0.8 miEast (80°)4.6 mphMist
8:15 AM35.6 °F35.6 °F100 %30.21 in0.5 miESE (110°)3.5 mphFogFog
8:35 AM37.4 °F37.4 °F100 %30.21 in0.5 miCalmFogFog
8:55 AM39.2 °F39.2 °F100 %30.21 in0.8 miCalmMist
9:15 AM41.0 °F41.0 °F100 %30.22 in1.0 miCalmMist
9:35 AM44.6 °F44.6 °F100 %30.22 in7.0 miSouth (180°)3.5 mphClear
9:55 AM48.2 °F48.2 °F100 %30.22 in10.0 miSW (220°)4.6 mphClear
10:15 AM51.8 °F51.8 °F100 %30.22 in10.0 miSW (220°)5.8 mphClear
10:35 AM53.6 °F51.8 °F94 %30.23 in10.0 miSSW (210°)5.8 mphClear
10:55 AM57.2 °F51.8 °F82 %30.23 in10.0 miSW (220°)3.5 mphClear
11:15 AM59.0 °F51.8 °F77 %30.23 in10.0 miWSW (240°)8.1 mphClear
11:35 AM59.0 °F51.8 °F77 %30.22 in10.0 miWSW (240°)6.9 mphClear
11:55 AM60.8 °F53.6 °F77 %30.21 in10.0 miWSW (240°)6.9 mphClear
12:15 PM62.6 °F53.6 °F72 %30.20 in10.0 miSW (230°)6.9 mphClear
12:35 PM62.6 °F51.8 °F68 %30.19 in10.0 miWSW (250°)8.1 mphClear
12:55 PM64.4 °F51.8 °F64 %30.17 in10.0 miSW (220°)8.1 mphClear
1:15 PM64.4 °F51.8 °F64 %30.16 in10.0 miSSW (210°)8.1 mphClear
1:35 PM66.2 °F53.6 °F64 %30.16 in10.0 miSSW (210°)8.1 mphClear
1:55 PM68.0 °F53.6 °F60 %30.14 in10.0 miSSW (210°)5.8 mphClear
2:15 PM68.0 °F53.6 °F60 %30.14 in10.0 miSW (220°)5.8 mphClear
2:35 PM68.0 °F53.6 °F60 %30.14 in10.0 miSW (220°)8.1 mphClear
2:55 PM69.8 °F53.6 °F56 %30.13 in10.0 miSSW (210°)8.1 mphClear
3:15 PM69.8 °F53.6 °F56 %30.12 in10.0 miSSW (210°)8.1 mphClear
3:35 PM69.8 °F51.8 °F53 %30.12 in10.0 miSSW (210°)9.2 mphClear
4:15 PM69.8 °F53.6 °F56 %30.11 in10.0 miSW (220°)9.2 mphClear
4:35 PM69.8 °F51.8 °F53 %30.11 in10.0 miSSW (210°)10.4 mphClear
4:55 PM69.8 °F51.8 °F53 %30.10 in10.0 miSSW (200°)11.5 mphClear
5:15 PM69.8 °F51.8 °F53 %30.09 in10.0 miSSW (210°)8.1 mphClear
5:35 PM68.0 °F51.8 °F56 %30.10 in10.0 miCalmClear
5:55 PM66.2 °F51.8 °F60 %30.10 in10.0 miSSW (200°)5.8 mphClear
6:15 PM64.4 °F51.8 °F64 %30.10 in10.0 miSSW (200°)4.6 mphClear
6:35 PM62.6 °F51.8 °F68 %30.10 in10.0 miCalmClear
7:15 PM60.8 °F51.8 °F72 %30.11 in10.0 miSE (140°)5.8 mphClear
7:35 PM59.0 °F51.8 °F77 %30.12 in10.0 miESE (110°)6.9 mphClear
7:55 PM59.0 °F51.8 °F77 %30.12 in10.0 miSE (140°)4.6 mphClear
8:15 PM59.0 °F51.8 °F77 %30.12 in10.0 miEast (100°)4.6 mphClear
8:35 PM59.0 °F51.8 °F77 %30.13 in10.0 miESE (110°)4.6 mphClear
8:55 PM53.6 °F50.0 °F88 %30.12 in10.0 miSE (140°)3.5 mphClear
9:15 PM55.4 °F50.0 °F82 %30.12 in10.0 miSE (130°)3.5 mphClear
9:35 PM55.4 °F50.0 °F82 %30.12 in10.0 miESE (120°)3.5 mphClear
9:55 PM55.4 °F50.0 °F82 %30.12 in10.0 miESE (110°)3.5 mphClear
10:15 PM55.4 °F50.0 °F82 %30.11 in10.0 miSE (140°)3.5 mphClear
10:35 PM53.6 °F50.0 °F88 %30.12 in10.0 miEast (80°)3.5 mphClear
11:15 PM53.6 °F50.0 °F88 %30.12 in10.0 miEast (90°)5.8 mphClear
11:55 PM53.6 °F50.0 °F88 %30.12 in10.0 miEast (90°)5.8 mphClear
Hourly data recorded from KDUC, located miles away from Moneka Park, Oklahoma







STORIES FROM OUR PARTNERS